Location: Bosmont
(49.7318°N, 3.8587°E)
Time: 23:18:07
(UTC+00:00)

ISS - Visible Passes

Search period start: 10 October 2024 00:00
Search period end: 20 October 2024 00:00
Orbit: 412 x 423 km, 51.6° (Epoch: 10 October)

Date Brightness Start Highest point End Pass type
(mag) Time Alt. Az. Time Alt. Az. Time Alt. Az.
17 Oct -0.9 05:09:43 10° S 05:11:51 16° SE 05:13:58 10° E visible
18 Oct -0.6 04:23:02 10° SE 04:23:33 10° SE 04:24:05 10° SE visible
19 Oct -2.2 05:08:07 10° SSW 05:11:08 33° SSE 05:14:10 10° E visible
